Probability
0 0 0 0 0 0 0 0 0 0 0 0 0 0 0 0 0 0 0 0 0 0 0 0 0 0 0 0 0 0 0 0 0 0 0 0 0 0 0 0 0 0 0
0 0 0 0 0 0 0 0 0 0 0 0 0 0 0 0 0 0 0 0 0 0 0 0 0 0 0 0 0 0 0 0 0 0 0 0 0 0 0 0 0 0 0
0 0 0 0 0 0 0 0 0 0 0 0 0 0 0 0 0 0 0 0 0 0 0 0 0 0 0 0 0 0 0 0 0 0 0 0 0 0 0 0 0 0 0
0 0 0 0 0 0 0 0 0 0 0 0 0 0 0 0 0 0 0 0 0 0 0 0 0 0 0 0 0 0 0 0 0 0 0 0 0 0 0 0 0 0 0
0 0 0 0 0 0 0 0 0 0 0 0 0 0 0 0 0 0 0 0 0 0 0 0 0 0 0 0 0 0 0 0 0 0 0 0 0 0 0 0 0 0 0
0 0 0 0 0 0 0 0 0 0 0 0 0 0 0 0 0 0 0 0 0 0 0 0 0 0 0 0 0 0 0 0 0 0 0 0 0 0 0 0 0 0 0
0 0 0 0 0 0 0 0 0 0 0 0 0 0 0 0 0 0 0 0 0 0 0 0 0 0 0 0 0 0 0 0 0 0 0 0 0 0 0 0 0 0 0
0 0 0 3 0 0 0 0 0 0 0 0 0 0 0 0 0 0 0 0 0 0 0 0 0 0 0 0 0 0 0 0 0 0 0 0 0 0 0 0 0 0 0
0 0 0 0 0 0 0 0 0 0 0 0 0 0 0 0 0 0 0 0 0 0 0 0 0 0 0 0 0 0 0 0 0 0 0 0 0 0 0 0 0 0 0
0 0 0 0 0 0 0 0 0 0 0 0 0 0 0 0 0 0 0 0 0 0 0 0 0 0 0 0 0 0 0 0 0 0 0 0 0 0 0 0 0 0 0
0 0 0 0 0 0 0 0 0 0 0 0 0 0 0 0 0 0 0 0 0 0 0 0 0 0 0 0 0 0 0 0 0 0 0 0 0 0 0 0 0 0 0
0 0 0 0 0 0 0 0 0 0 0 0 0 0 0 0 0 0 0 0 0 0 0 0 0 0 0 0 0 0 0 0 0 0 0 0 0 0 0 0 0 0 0
3 0 0 0 0 0 0 0 0 0 0 0 0 0 0 0 0 0 0 0 0 0 0 0 0 0 0 0 0 0 0 0 0 0 0 0 0 0 0 0 0 0 0
3 6 0 0 0 0 0 0 0 0 0 0 0 0 0 0 0 0 0 0 0 0 0 0 0 0 0 0 0 0 0 0 0 0 0 0 0 0 0 0 0 0 0
3 3 3 3 0 0 0 0 0 0 0 0 0 0 0 0 0 0 0 0 0 0 0 0 0 0 0 0 0 0 0 0 0 0 0 0 0 0 0 0 0 0 0
0 0 0 0 0 0 0 0 0 0 0 0 0 0 0 0 0 0 0 0 0 0 0 0 0 0 0 0 0 0 0 0 0 0 0 0 0 0 0 0 0 0 0
0 0 0 0 0 0 0 0 0 0 0 0 0 0 0 0 0 0 0 0 0 0 0 0 0 0 0 0 0 0 0 0 0 0 0 0 0 0 0 0 0 0 0
0 0 0 0 0 0 0 0 0 0 0 0 0 0 0 0 0 0 0 0 0 0 0 0 0 0 0 0 0 0 0 0 0 0 0 0 0 0 0 0 0 0 0
0 0 0 0 0 0 0 0 0 0 0 0 0 0 0 0 0 0 0 0 0 0 0 0 0 0 0 0 0 0 0 0 0 0 0 0 0 0 0 0 0 0 0
0 0 0 0 0 0 0 0 0 0 0 0 0 0 0 0 0 0 0 0 0 0 0 0 0 0 0 0 0 0 0 0 0 0 0 0 0 0 0 0 0 0 0
0 0 0 0 0 0 0 0 0 0 0 0 0 0 0 0 0 0 0 0 0 0 0 0 0 0 0 0 0 0 0 0 0 0 0 0 0 0 0 0 0 0 0
0 0 0 0 0 0 0 0 0 0 0 0 0 0 0 0 0 0 0 0 0 0 0 0 0 0 0 0 0 0 0 0 0 0 0 0 0 0 0 0 0 0 0
0 0 0 0 0 0 0 0 0 0 0 0 0 0 0 0 0 0 0 0 0 0 0 0 0 0 0 0 0 0 0 0 0 0 0 0 0 0 0 0 0 0 0
0 0 0 0 0 0 0 0 0 0 0 0 0 0 0 0 0 0 0 0 0 0 0 0 0 0 0 0 0 0 0 0 0 0 0 0 0 0 0 0 0 0 0
0 0 0 0 0 0 0 0 0 0 0 0 0 0 0 0 0 0 0 0 0 0 0 0 0 0 0 0 0 0 0 0 0 0 0 0 0 0 0 0 0 0 0
0 0 0 0 0 0 0 0 0 0 0 0 0 0 0 0 0 0 0 0 0 0 0 0 0 0 0 0 0 0 0 0 0 0 0 0 0 0 0 0 0 0 0
Height
5877 5877 5877 5877 5877 5877 5876 5875 5874 5873 5872 5870 5869 5867 5865 5863 5861 5858 5856 5854 5851 5849 5846 5844 5841 5838 5836 5833 5831 5828 5826 5823 5821 5818 5816 5814 5812 5810 5808 5807 5806 5805 5804
5872 5873 5873 5873 5873 5872 5872 5871 5870 5869 5868 5866 5864 5863 5861 5858 5856 5854 5851 5849 5846 5843 5841 5838 5836 5833 5830 5827 5825 5822 5819 5817 5814 5812 5809 5807 5805 5803 5801 5800 5798 5797 5796
5868 5868 5868 5868 5868 5868 5867 5867 5866 5864 5863 5862 5860 5858 5856 5853 5851 5848 5846 5843 5840 5838 5835 5833 5830 5827 5824 5822 5819 5816 5813 5810 5807 5805 5802 5800 5798 5796 5794 5792 5790 5789 5788
5862 5863 5863 5863 5863 5863 5862 5861 5860 5859 5858 5856 5855 5853 5851 5848 5846 5843 5840 5837 5834 5832 5829 5826 5823 5821 5818 5815 5812 5809 5806 5803 5800 5797 5795 5792 5790 5788 5785 5784 5782 5781 5780
5856 5857 5857 5857 5857 5857 5856 5856 5855 5854 5852 5851 5849 5847 5845 5843 5840 5837 5834 5831 5828 5825 5822 5819 5817 5814 5811 5808 5805 5802 5799 5796 5792 5789 5787 5784 5782 5779 5777 5775 5773 5772 5771
5850 5851 5851 5851 5851 5851 5850 5850 5849 5847 5846 5844 5843 5841 5839 5836 5833 5830 5827 5824 5821 5818 5815 5812 5809 5806 5803 5800 5797 5794 5791 5788 5785 5782 5778 5775 5773 5770 5768 5766 5764 5762 5761
5843 5844 5844 5844 5844 5844 5843 5843 5842 5841 5839 5837 5836 5834 5832 5829 5826 5823 5820 5817 5814 5811 5807 5804 5801 5799 5795 5792 5789 5786 5783 5780 5776 5773 5770 5767 5764 5761 5759 5756 5754 5753 5751
5836 5836 5837 5837 5837 5837 5836 5835 5834 5833 5832 5830 5828 5826 5825 5824 5820 5816 5812 5809 5806 5802 5799 5796 5793 5790 5787 5784 5781 5778 5775 5771 5768 5764 5760 5757 5754 5752 5749 5746 5744 5742 5740
5828 5828 5829 5829 5829 5829 5828 5828 5827 5826 5824 5823 5820 5818 5817 5815 5813 5810 5806 5802 5798 5794 5791 5788 5785 5782 5779 5776 5772 5769 5766 5762 5759 5755 5751 5747 5744 5741 5738 5735 5733 5731 5729
5819 5820 5820 5821 5821 5820 5820 5819 5818 5817 5816 5815 5813 5810 5808 5805 5803 5802 5799 5795 5790 5787 5783 5780 5776 5773 5770 5767 5764 5760 5757 5753 5749 5746 5742 5738 5734 5730 5727 5724 5721 5719 5717
5809 5810 5811 5811 5812 5811 5811 5811 5810 5808 5807 5806 5804 5802 5799 5797 5794 5791 5790 5787 5783 5779 5775 5771 5768 5764 5761 5758 5755 5751 5748 5744 5740 5736 5732 5728 5724 5720 5717 5713 5710 5708 5706
5800 5801 5801 5802 5802 5802 5802 5801 5800 5799 5798 5796 5795 5793 5790 5788 5785 5782 5780 5777 5774 5770 5766 5762 5759 5755 5752 5749 5745 5742 5739 5735 5731 5727 5723 5719 5715 5711 5707 5704 5700 5697 5695
5790 5791 5791 5792 5792 5792 5792 5792 5791 5790 5788 5787 5785 5783 5781 5778 5776 5773 5770 5767 5764 5761 5757 5754 5750 5746 5743 5739 5736 5733 5729 5726 5722 5718 5714 5710 5707 5703 5699 5694 5691 5687 5685
5779 5780 5781 5782 5782 5782 5782 5781 5781 5780 5778 5777 5775 5773 5771 5769 5766 5763 5761 5758 5755 5752 5748 5745 5741 5737 5733 5730 5727 5723 5720 5716 5713 5709 5705 5701 5698 5694 5690 5686 5682 5679 5677
5769 5769 5770 5771 5771 5771 5771 5771 5770 5770 5768 5767 5765 5763 5761 5759 5756 5754 5751 5748 5745 5742 5739 5735 5732 5728 5724 5721 5718 5714 5711 5707 5704 5700 5696 5693 5689 5685 5682 5678 5674 5672 5669
5758 5758 5759 5760 5760 5760 5760 5760 5760 5759 5758 5756 5755 5753 5751 5749 5746 5744 5741 5738 5735 5732 5729 5726 5722 5719 5716 5712 5709 5705 5702 5698 5695 5691 5688 5684 5681 5677 5674 5670 5667 5664 5662
5746 5747 5748 5749 5749 5749 5749 5749 5749 5748 5747 5746 5744 5742 5741 5739 5737 5734 5731 5728 5725 5722 5720 5717 5713 5710 5707 5704 5700 5696 5693 5690 5686 5683 5679 5676 5672 5669 5666 5663 5659 5657 5654
5735 5736 5737 5737 5738 5738 5738 5738 5737 5737 5736 5735 5734 5732 5730 5728 5726 5724 5721 5719 5716 5713 5710 5707 5704 5701 5698 5695 5691 5688 5684 5681 5678 5674 5671 5667 5664 5661 5657 5654 5651 5648 5646
5723 5724 5725 5726 5726 5726 5727 5726 5726 5726 5725 5724 5723 5722 5720 5718 5716 5714 5711 5709 5706 5704 5701 5698 5695 5692 5689 5686 5682 5679 5675 5672 5669 5665 5662 5659 5655 5652 5649 5645 5642 5639 5636
5712 5713 5713 5714 5715 5715 5715 5715 5715 5715 5714 5714 5713 5711 5710 5708 5706 5704 5702 5699 5697 5694 5692 5689 5686 5683 5680 5677 5673 5670 5667 5663 5660 5656 5653 5649 5646 5642 5639 5636 5632 5629 5626
5700 5701 5702 5703 5703 5704 5704 5704 5704 5704 5704 5703 5702 5701 5700 5698 5696 5694 5692 5690 5688 5685 5683 5680 5677 5674 5671 5668 5665 5661 5658 5654 5651 5647 5644 5640 5636 5633 5629 5625 5621 5617 5614
5689 5690 5691 5692 5692 5693 5693 5693 5693 5694 5693 5693 5692 5691 5690 5688 5686 5685 5683 5681 5679 5676 5674 5671 5668 5665 5662 5659 5655 5652 5649 5645 5642 5638 5634 5630 5626 5622 5617 5613 5609 5605 5601
5678 5679 5680 5681 5682 5682 5682 5683 5683 5683 5683 5683 5682 5681 5680 5678 5677 5675 5673 5671 5669 5667 5665 5662 5659 5656 5653 5650 5647 5643 5639 5636 5632 5627 5623 5619 5615 5611 5606 5601 5597 5593 5589
5668 5669 5669 5670 5671 5672 5672 5672 5673 5673 5673 5672 5672 5671 5670 5669 5667 5666 5664 5662 5660 5658 5655 5653 5650 5647 5644 5640 5637 5634 5630 5626 5621 5617 5612 5608 5603 5599 5594 5589 5584 5580 5575
5657 5658 5659 5660 5661 5661 5662 5662 5662 5663 5663 5662 5662 5661 5661 5659 5658 5657 5655 5653 5651 5649 5646 5643 5641 5638 5634 5631 5627 5624 5620 5615 5611 5606 5601 5596 5591 5586 5581 5575 5570 5566 5561
5647 5648 5649 5650 5650 5651 5652 5652 5652 5653 5653 5653 5652 5652 5651 5650 5649 5647 5646 5644 5642 5640 5637 5634 5631 5628 5625 5621 5617 5613 5609 5605 5600 5595 5590 5585 5579 5573 5567 5561 5556 5551 5546
Wind_Speed
18 18 18 18 18 18 18 19 19 20 21 22 23 24 25 26 27 29 30 31 31 32 32 32 33 33 32 32 32 33 33 34 34 34 34 34 34 34 34 34 33 33 32
21 21 20 20 20 20 21 21 22 22 23 24 25 26 27 28 29 30 31 32 33 33 33 33 33 34 33 33 34 34 35 35 35 35 35 35 35 35 35 35 35 35 34
24 23 23 23 23 23 23 24 24 25 25 26 27 28 29 30 31 32 33 34 34 34 34 35 34 34 34 35 35 36 36 36 36 36 36 36 36 37 37 37 36 36 36
27 26 26 26 26 26 26 26 27 27 28 28 29 29 30 32 32 33 35 35 35 36 36 36 36 36 36 36 37 37 36 36 37 37 37 38 37 37 37 37 37 37 37
30 30 29 29 29 29 29 29 29 30 30 31 31 31 32 33 34 35 36 36 37 37 37 37 37 37 37 38 37 37 37 37 37 38 39 39 38 38 38 38 39 39 39
34 33 33 33 32 32 32 32 32 32 33 33 33 34 34 35 35 36 37 37 38 38 38 38 38 38 39 38 38 38 38 38 38 38 39 39 39 39 38 39 39 39 39
37 36 36 35 35 34 34 34 34 35 35 35 36 36 36 36 37 38 38 38 39 39 39 39 39 40 39 39 39 38 38 39 39 40 40 39 39 39 39 40 40 40 40
40 39 38 38 38 37 37 37 37 37 37 37 38 38 37 37 38 39 40 40 41 41 40 40 40 40 40 39 39 39 39 40 40 40 40 39 39 40 41 41 41 41 42
43 42 41 41 40 40 39 39 39 39 39 39 40 40 40 39 39 38 39 40 41 41 41 41 41 41 41 40 40 40 40 40 40 39 40 40 41 42 42 42 41 41 42
45 45 44 43 43 42 42 41 41 41 41 41 41 41 42 42 42 41 39 39 40 41 41 42 41 41 41 40 40 40 40 39 39 39 39 40 41 41 41 41 41 40 41
47 47 47 46 45 44 43 42 42 43 42 42 42 42 42 43 43 43 41 41 41 41 41 41 41 40 40 40 40 40 39 40 39 39 39 39 39 39 40 40 39 39 40
49 49 48 47 46 46 45 44 44 44 44 43 43 44 44 43 43 43 43 42 41 41 41 41 40 40 40 40 40 39 39 39 39 39 39 37 37 37 38 38 38 38 38
51 50 49 49 48 47 46 46 46 45 45 45 45 45 44 44 43 43 42 42 41 41 41 41 41 41 41 40 39 39 39 39 38 38 37 36 36 36 35 36 36 36 36
51 51 50 49 49 48 48 48 47 47 46 46 45 45 44 43 43 43 42 42 41 41 41 41 41 41 40 39 39 39 38 38 38 37 36 35 35 35 35 35 35 34 33
51 51 50 50 50 50 49 49 48 47 46 45 45 44 43 43 42 42 42 42 42 41 40 40 40 40 39 38 38 38 38 38 37 36 35 34 34 34 35 34 33 32 32
52 51 51 50 50 49 48 48 48 47 47 46 45 44 43 42 42 42 42 42 41 41 40 40 39 38 38 38 38 38 37 37 36 35 34 33 33 33 33 33 32 32 32
51 51 51 50 49 49 49 49 48 47 46 46 44 43 42 42 42 42 42 41 41 40 39 39 38 37 37 37 37 37 37 36 35 34 34 34 33 33 32 32 32 32 32
51 51 51 50 50 49 49 48 47 46 45 44 43 42 41 41 41 41 41 40 39 39 38 37 37 37 36 36 37 37 36 35 34 34 34 34 34 33 33 33 33 33 34
50 50 50 49 49 48 47 47 46 45 44 43 42 41 40 40 40 39 39 38 38 38 37 37 36 36 36 36 36 36 35 34 34 34 34 34 34 34 34 34 35 36 36
49 49 48 47 47 46 46 44 44 43 43 42 41 40 39 39 38 38 37 37 37 36 36 36 35 36 36 36 35 35 35 35 35 35 35 35 36 36 36 37 38 38 39
46 46 46 45 44 44 44 43 42 41 41 40 39 39 39 38 37 37 36 36 35 35 35 35 35 35 35 35 35 35 35 35 35 36 36 37 37 38 38 39 40 40 41
43 42 41 41 41 42 41 41 40 40 39 39 39 38 37 36 36 36 35 34 34 34 34 34 35 35 35 34 34 35 35 36 36 37 38 38 39 40 40 41 41 42 43
40 40 40 39 39 39 38 38 38 38 38 38 37 37 36 35 35 35 34 34 34 34 34 34 34 34 34 34 35 35 36 37 38 38 39 40 40 41 42 43 43 43 43
39 39 39 39 38 38 38 38 38 37 37 36 36 35 35 35 34 33 33 33 33 34 33 33 34 34 34 35 36 36 37 38 39 39 40 41 42 43 44 44 44 45 45
38 37 37 37 37 37 37 37 36 36 35 35 35 34 34 33 33 33 33 33 33 33 33 33 34 34 35 36 37 37 38 39 40 41 41 43 44 45 46 46 46 47 47
37 36 36 35 35 35 35 35 35 35 34 34 34 33 33 32 32 33 33 33 33 33 33 34 34 34 35 36 37 38 39 40 40 41 43 44 45 46 47 48 48 48 48
Wind_Direction
262 268 272 276 280 284 288 291 294 297 300 302 304 305 306 307 307 308 308 308 308 309 309 309 309 309 309 309 308 307 307 306 305 303 302 300 298 295 293 291 289 287 285
262 267 271 274 278 281 285 288 290 293 296 298 300 302 303 304 305 305 306 306 307 307 308 307 307 307 307 307 307 306 305 305 304 303 301 300 298 296 294 291 289 287 285
262 266 269 273 276 279 282 285 288 290 293 295 297 299 300 301 302 303 304 304 305 306 306 306 306 306 306 306 305 305 304 303 302 301 300 298 297 295 293 291 288 286 284
263 266 269 272 275 278 281 284 286 288 290 292 294 297 298 299 300 301 302 303 304 304 304 304 304 304 305 304 304 303 303 302 301 300 299 298 296 295 293 291 288 285 283
263 266 269 272 275 277 280 282 284 286 288 290 293 295 296 297 298 299 300 302 302 303 303 303 303 304 304 303 303 302 302 301 300 300 299 297 296 294 292 291 288 285 282
263 266 269 271 274 276 279 281 283 285 287 289 291 294 295 296 297 298 299 300 301 301 301 302 302 303 303 302 302 301 301 300 300 299 298 296 295 294 292 291 288 285 283
263 266 268 271 273 276 278 280 282 284 286 288 291 293 294 295 297 297 298 299 300 300 300 300 301 301 301 301 300 300 299 299 299 298 297 295 294 293 293 290 287 285 283
263 265 268 270 272 275 277 279 281 283 285 287 290 291 292 293 295 297 298 299 299 299 299 300 300 300 300 299 299 299 298 298 298 298 296 294 293 292 291 290 287 284 283
261 264 267 269 272 274 276 278 280 282 284 286 288 290 290 291 292 294 295 296 296 296 297 298 298 298 298 298 298 298 297 297 297 297 296 294 294 293 290 288 287 284 283
261 263 266 268 271 273 275 277 279 281 283 285 286 288 290 291 292 292 293 293 293 294 294 295 296 296 296 297 297 298 297 297 297 298 297 297 296 295 293 290 289 284 282
261 264 266 267 269 271 273 276 278 280 281 283 286 287 289 290 291 292 293 293 293 293 293 294 295 295 295 296 297 297 297 297 298 298 297 298 298 297 296 294 291 287 284
261 263 264 266 267 269 271 274 276 278 281 283 285 287 288 289 290 291 292 293 292 293 293 294 294 294 295 296 296 297 297 298 298 298 298 297 297 297 296 294 291 289 285
259 261 262 263 266 268 270 272 275 277 280 282 284 285 287 288 289 290 291 292 292 293 293 293 293 294 295 295 296 297 298 298 298 298 297 297 297 297 296 296 293 291 288
259 260 261 263 265 267 269 271 274 277 279 281 283 285 286 287 288 289 290 291 292 292 293 293 293 294 295 295 296 297 297 298 299 298 297 297 297 297 296 296 295 292 290
259 260 262 264 265 267 269 271 274 277 279 281 282 283 284 285 287 288 288 290 291 292 292 292 293 294 294 295 296 297 297 298 298 298 297 298 299 298 297 295 294 290 290
260 261 263 264 266 268 270 271 274 276 278 280 281 282 283 284 285 287 288 289 290 291 292 292 292 292 293 295 296 297 297 297 298 297 297 299 299 298 297 296 294 292 290
260 261 263 264 266 268 270 272 274 276 277 279 279 281 281 282 284 286 287 289 290 290 291 291 291 292 293 295 296 297 297 297 297 297 297 298 298 298 297 296 294 292 290
261 262 263 265 267 268 270 272 273 274 276 277 278 279 280 282 284 285 286 287 288 289 290 290 291 292 293 295 296 297 297 296 297 297 297 298 297 297 297 296 294 292 290
262 263 264 266 267 268 269 270 271 273 274 275 276 278 279 282 283 284 286 286 287 288 289 290 291 292 293 294 295 296 296 296 297 297 298 298 297 296 296 295 294 292 290
262 263 265 266 267 268 268 269 270 272 273 274 276 277 279 281 283 284 285 285 287 288 289 290 291 292 293 294 295 296 296 297 297 298 298 298 298 297 297 296 295 293 292
262 263 265 266 267 267 267 268 269 270 272 274 275 277 279 280 281 282 283 285 286 288 289 291 292 292 293 294 295 295 296 297 297 298 299 299 298 298 297 297 296 294 293
263 264 264 265 266 266 267 267 268 269 271 273 274 276 278 279 280 282 283 285 286 288 289 291 291 292 294 295 295 296 297 297 298 299 299 300 299 299 298 298 296 295 294
262 262 263 264 265 265 265 266 267 269 270 272 273 275 276 277 279 281 283 284 286 288 289 291 292 293 294 295 296 297 298 298 299 299 300 300 300 300 299 298 297 296 294
261 261 262 262 263 264 264 265 266 268 269 270 272 274 276 277 278 281 283 284 286 287 289 290 291 293 294 295 296 297 298 299 300 300 301 301 301 301 300 299 298 296 295
261 261 261 262 262 263 263 264 265 267 268 269 271 273 275 276 278 281 283 284 286 287 289 290 291 293 295 296 297 298 299 300 301 301 302 302 303 302 302 300 299 297 296
260 260 260 261 261 262 262 264 265 266 267 268 270 271 274 276 279 280 283 284 286 287 289 291 292 294 296 297 298 299 300 301 302 302 303 304 304 304 303 301 300 299 298